Assumption Island Airport

Jump to: basic info | weather | runways | comments

Related pages: nearby airports | nearby navaids | notams | map

Basic information (top)

Codes: FSAS
Location: lon -9.742220, lat 46.506802, elev 10 ft / 3 m msl
Status: small_airport

Weather (top)

Current conditions for Prince Said Ibrahim International Airport 219nm (406km) WSW (rec'd 2014/12/29 08:00Z):

FMCH 290800Z 35010KT 320V020 9999 SCT020CB BKN060 30/25 Q1012 NOSIG

Airport forecast for Prince Said Ibrahim International Airport 219nm (406km) WSW (rec'd 2014/12/29 06:00Z):

TAF FMCH 290500Z 2906/3012 34012KT 9999 TS SCT020CB SCT030 PROB40 
      TEMPO 2906/2910 4000 TSRA 
      BECMG 2914/2916 06005KT NSW 
      TEMPO 2918/3002 3000 TSRA 
      BECMG 3006/3008 33010KT

Runways (top)

13/31: 3,963 x 75 ft (1,208 x 23 m) — paved — not lighted

Latest comments (top)

No comments yet for Assumption Island Airport

More... (top)

See also NOTAMs and nearby airports and navaids, or visit the Assumption Island Airport page at the main OurAirports website..